TimeGMT,TemperatureF,Dew PointF,Humidity,Sea Level PressureIn,VisibilityMPH,Wind Direction,Wind SpeedMPH,Gust SpeedMPH,PrecipitationIn,Events,Conditions,WindDirDegrees,DateUTC
12:20 AM,32.0,28.4,87,30.21,-9999.0,East,8.1,-,N/A,,Clear,90,2012-01-16 00:20:00
12:50 AM,32.0,28.4,87,30.21,5.6,East,9.2,-,N/A,,Unknown,90,2012-01-16 00:50:00
1:20 AM,32.0,28.4,87,30.21,6.2,East,6.9,-,N/A,,Unknown,90,2012-01-16 01:20:00
1:50 AM,32.0,28.4,87,30.21,5.0,East,6.9,-,N/A,,Unknown,90,2012-01-16 01:50:00
2:20 AM,32.0,28.4,87,30.21,4.3,East,5.8,-,N/A,,Unknown,80,2012-01-16 02:20:00
2:50 AM,33,30,83,30.24,6,East,5.8,,,,Light Haze,80,2012-01-16 02:50:00
2:50 AM,30.2,28.4,93,30.21,5.0,East,6.9,-,N/A,,Unknown,90,2012-01-16 02:50:00
3:20 AM,30.2,28.4,93,30.24,5.0,ENE,5.8,-,N/A,,Unknown,70,2012-01-16 03:20:00
3:50 AM,30.2,28.4,93,30.24,5.0,East,6.9,-,N/A,,Unknown,80,2012-01-16 03:50:00
4:20 AM,30.2,28.4,93,30.24,4.3,ENE,5.8,-,N/A,,Unknown,60,2012-01-16 04:20:00
4:50 AM,30.2,28.4,93,30.24,5.0,ENE,5.8,-,N/A,,Unknown,70,2012-01-16 04:50:00
5:20 AM,30.2,26.6,86,30.24,5.0,ENE,5.8,-,N/A,,Unknown,70,2012-01-16 05:20:00
5:50 AM,32,29,86,30.25,4,NE,4.6,,,,Light Haze,50,2012-01-16 05:50:00
5:50 AM,30.2,26.6,86,30.24,5.0,NE,4.6,-,N/A,,Unknown,50,2012-01-16 05:50:00
6:20 AM,30.2,26.6,86,30.24,4.3,ENE,3.5,-,N/A,,Unknown,60,2012-01-16 06:20:00
6:50 AM,30.2,28.4,93,30.24,5.6,NE,3.5,-,N/A,,Unknown,50,2012-01-16 06:50:00
7:20 AM,30.2,28.4,93,30.24,3.7,ENE,5.8,-,N/A,,Unknown,60,2012-01-16 07:20:00
7:50 AM,30.2,28.4,93,30.27,4.3,East,4.6,-,N/A,,Unknown,80,2012-01-16 07:50:00
8:20 AM,28.4,26.6,93,30.27,4.3,East,4.6,-,N/A,,Unknown,80,2012-01-16 08:20:00
8:50 AM,34,31,83,30.28,5,NE,2.3,,,,Light Haze,40,2012-01-16 08:50:00
8:50 AM,30.2,28.4,93,30.27,4.3,Variable,3.5,-,N/A,,Unknown,0,2012-01-16 08:50:00
9:20 AM,32.0,30.2,93,30.27,4.3,Variable,2.3,-,N/A,,Unknown,0,2012-01-16 09:20:00
9:50 AM,35.6,30.2,81,30.30,-9999.0,ENE,4.6,-,N/A,,Clear,70,2012-01-16 09:50:00
10:20 AM,37.4,30.2,75,30.30,-9999.0,ENE,5.8,-,N/A,,Clear,70,2012-01-16 10:20:00
10:50 AM,39.2,30.2,70,30.30,-9999.0,East,8.1,-,N/A,,Clear,90,2012-01-16 10:50:00
11:20 AM,41.0,30.2,65,30.30,-9999.0,East,8.1,-,N/A,,Clear,90,2012-01-16 11:20:00
11:50 AM,42,29,49,30.30,12,East,9.2,,,,,100,2012-01-16 11:50:00
11:50 AM,41.0,30.2,65,30.30,-9999.0,East,9.2,-,N/A,,Clear,100,2012-01-16 11:50:00
12:20 PM,42.8,28.4,57,30.27,-9999.0,East,9.2,-,N/A,,Clear,100,2012-01-16 12:20:00
12:50 PM,42.8,28.4,57,30.27,-9999.0,East,9.2,-,N/A,,Clear,90,2012-01-16 12:50:00
1:20 PM,44.6,26.6,49,30.27,-9999.0,East,9.2,-,N/A,,Clear,90,2012-01-16 13:20:00
1:50 PM,44.6,26.6,49,30.27,-9999.0,East,9.2,-,N/A,,Clear,90,2012-01-16 13:50:00
2:20 PM,44.6,24.8,46,30.27,-9999.0,East,8.1,-,N/A,,Clear,80,2012-01-16 14:20:00
2:50 PM,44,23,30,30.28,16,East,8.1,,,,,90,2012-01-16 14:50:00
2:50 PM,44.6,23.0,43,30.27,-9999.0,East,9.2,-,N/A,,Clear,90,2012-01-16 14:50:00
3:20 PM,42.8,26.6,53,30.27,-9999.0,East,8.1,-,N/A,,Clear,90,2012-01-16 15:20:00
3:50 PM,42.8,24.8,49,30.27,-9999.0,East,6.9,-,N/A,,Clear,90,2012-01-16 15:50:00
4:20 PM,39.2,26.6,61,30.27,-9999.0,East,6.9,-,N/A,,Clear,90,2012-01-16 16:20:00
4:50 PM,37.4,26.6,65,30.27,-9999.0,East,5.8,-,N/A,,Clear,90,2012-01-16 16:50:00
5:20 PM,37.4,26.6,65,30.30,-9999.0,East,4.6,-,N/A,,Clear,90,2012-01-16 17:20:00
5:50 PM,35,26,61,30.32,11,East,8.1,,,,,90,2012-01-16 17:50:00
5:50 PM,37.4,26.6,65,30.30,-9999.0,East,6.9,-,N/A,,Clear,100,2012-01-16 17:50:00
6:20 PM,35.6,26.6,70,30.30,-9999.0,East,4.6,-,N/A,,Clear,90,2012-01-16 18:20:00
6:50 PM,35.6,26.6,70,30.33,-9999.0,East,4.6,-,N/A,,Clear,80,2012-01-16 18:50:00
7:20 PM,35.6,26.6,70,30.33,-9999.0,ENE,3.5,-,N/A,,Clear,60,2012-01-16 19:20:00
7:50 PM,35.6,24.8,65,30.33,-9999.0,East,4.6,-,N/A,,Clear,80,2012-01-16 19:50:00
8:20 PM,35.6,24.8,65,30.33,-9999.0,Variable,2.3,-,N/A,,Clear,0,2012-01-16 20:20:00
8:50 PM,35,28,67,30.35,6,NE,2.3,,,,Light Haze,50,2012-01-16 20:50:00
8:50 PM,35.6,24.8,65,30.33,-9999.0,Variable,2.3,-,N/A,,Clear,0,2012-01-16 20:50:00
9:20 PM,33.8,23.0,65,30.33,-9999.0,Variable,3.5,-,N/A,,Clear,0,2012-01-16 21:20:00
9:50 PM,33.8,24.8,70,30.33,-9999.0,East,3.5,-,N/A,,Clear,80,2012-01-16 21:50:00
10:20 PM,33.8,23.0,65,30.33,-9999.0,ESE,6.9,-,N/A,,Clear,110,2012-01-16 22:20:00
10:50 PM,32.0,23.0,69,30.33,-9999.0,ESE,6.9,-,N/A,,Clear,110,2012-01-16 22:50:00
11:20 PM,32.0,23.0,69,30.33,-9999.0,East,4.6,-,N/A,,Clear,90,2012-01-16 23:20:00
11:50 PM,33,25,61,30.35,9,NE,2.3,,,,,40,2012-01-16 23:50:00
11:50 PM,32.0,23.0,69,30.33,-9999.0,NNE,2.3,-,N/A,,Clear,30,2012-01-16 23:50:00